Weather History for Jackson, TN

Change the Weather History Date:

Wednesday, October 30, 2013

  Actual Average Record
Temperature  
Mean Temperature 68 °F 56 °F  
Max Temperature 74 °F 68 °F 85 °F (1950)
Min Temperature 62 °F 44 °F 28 °F (1952)
Degree Days  
Heating Degree Days 0 10  
Month to date heating degree days 197 178  
Since 1 July heating degree days 205 204  
Cooling Degree Days 3 1  
Month to date cooling degree days 71 48  
Year to date cooling degree days 1592 1691  
Growing Degree Days 18 (Base 50)    
Moisture  
Dew Point 61 °F    
Average Humidity 79    
Maximum Humidity 90    
Minimum Humidity 68    
Precipitation  
Precipitation 0.00 in 0.13 in 1.79 in (2009)
Month to date precipitation 2.24 3.65  
Year to date precipitation 50.19 42.90  
Snow  
Snow 0.00 in 0.00 in T in (1993)
Month to date snowfall 0.0 0.0  
Since 1 July snowfall 0.0 0.0  
Since 1 September snowfall 0.0 0.0  
Snow Depth 0.00 in    
Sea Level Pressure  
Sea Level Pressure 30.11 in    
Wind  
Wind Speed 6 mph (South)    
Max Wind Speed 15 mph    
Max Gust Speed 20 mph    
Visibility 10 miles    
Events      
T = Trace of Precipitation, MM = Missing Value Source: NWS Daily Summary

Daily Weather History Graph

Daily Weather History Graph

Search for Another Location

Airport:

Trip Planner

Search our weather history database for the weather conditions in past years. The results will help you decide how hot, cold, wet, or windy it might be!

Date:

Astronomy

Oct. 30, 2013 Rise Set
Actual Time 7:15 AM CDT 6:02 PM CDT
Civil Twilight 6:49 AM CDT 6:28 PM CDT
Nautical Twilight 6:19 AM CDT 6:58 PM CDT
Astronomical Twilight 5:49 AM CDT 7:28 PM CDT
Moon 3:12 AM CDT (10/30) 3:40 PM CDT (10/30)
Length of Visible Light 11h 38m
Length of Day
10h 46m
Waning Crescent, 17% of the Moon is Illuminated
Oct 30
Waning Crescent
Nov 3
New
Nov 9
First Quarter
Nov 17
Full
Nov 25
Last Quarter

Hourly Weather History & Observations

Time (CDT) Temp. Dew Point Humidity Pressure Visibility Wind Dir Wind Speed Gust Speed Precip Events Conditions
12:53 AM 64.9 °F 59.0 °F 81% 30.16 in 10.0 mi South 5.8 mph - N/A   Mostly Cloudy
1:53 AM 64.0 °F 59.0 °F 84% 30.15 in 10.0 mi South 8.1 mph - N/A   Scattered Clouds
2:53 AM 64.0 °F 59.0 °F 84% 30.15 in 10.0 mi South 6.9 mph - N/A   Partly Cloudy
3:53 AM 63.0 °F 59.0 °F 87% 30.15 in 10.0 mi South 5.8 mph - N/A   Clear
4:53 AM 63.0 °F 59.0 °F 87% 30.16 in 10.0 mi South 6.9 mph - N/A   Clear
5:53 AM 62.1 °F 59.0 °F 90% 30.17 in 10.0 mi SSW 6.9 mph - N/A   Clear
6:53 AM 62.1 °F 59.0 °F 90% 30.17 in 10.0 mi South 6.9 mph - N/A   Clear
7:53 AM 62.1 °F 59.0 °F 90% 30.18 in 10.0 mi SSW 9.2 mph - N/A   Clear
8:53 AM 64.9 °F 61.0 °F 87% 30.19 in 10.0 mi South 9.2 mph - N/A   Clear
9:53 AM 68.0 °F 62.1 °F 81% 30.19 in 10.0 mi SSW 6.9 mph - N/A   Clear
10:53 AM 70.0 °F 62.1 °F 76% 30.18 in 10.0 mi SSW 11.5 mph - N/A   Clear
11:53 AM 73.0 °F 62.1 °F 68% 30.16 in 10.0 mi South 8.1 mph - N/A   Clear
12:53 PM 73.0 °F 63.0 °F 71% 30.14 in 10.0 mi South 8.1 mph - N/A   Clear
1:08 PM 73.4 °F 62.6 °F 69% 30.14 in 10.0 mi South 13.8 mph 19.6 mph N/A   Scattered Clouds
1:53 PM 73.9 °F 62.1 °F 66% 30.10 in 10.0 mi South 9.2 mph - N/A   Scattered Clouds
2:53 PM 73.0 °F 62.1 °F 68% 30.07 in 10.0 mi South 4.6 mph - N/A   Clear
3:53 PM 72.0 °F 62.1 °F 71% 30.06 in 10.0 mi SSE 4.6 mph - N/A   Clear
4:53 PM 71.1 °F 62.1 °F 73% 30.04 in 10.0 mi Calm Calm - N/A   Partly Cloudy
5:53 PM 69.1 °F 62.1 °F 78% 30.03 in 10.0 mi Calm Calm - N/A   Clear
6:53 PM 69.1 °F 62.1 °F 78% 30.02 in 10.0 mi SSE 5.8 mph - N/A   Clear
7:53 PM 69.1 °F 62.1 °F 78% 30.03 in 10.0 mi SSE 6.9 mph - N/A   Clear
8:53 PM 68.0 °F 60.1 °F 76% 30.02 in 10.0 mi South 4.6 mph - N/A   Clear
9:53 PM 68.0 °F 59.0 °F 73% 30.03 in 10.0 mi South 5.8 mph - N/A   Overcast
10:53 PM 68.0 °F 60.1 °F 76% 30.02 in 10.0 mi South 5.8 mph - N/A   Overcast
11:53 PM 68.0 °F 60.1 °F 76% 29.99 in 10.0 mi South 5.8 mph - N/A   Overcast